Location: Boca do Mato
(22.9085°S, 43.2930°W)
Time: 22:37:27
(UTC+00:00)

H-2A R/B - Pass Details

Date: 14 July 2020
Orbit: 500 x 542 km, 97.3° (Epoch: 17 June)

Event Time Altitude Azimuth Distance (km) Brightness Sun altitude
Rises 08:53:55 0° 342° (NNW) 2,677 6.4 -9.4°
Reaches altitude 10° 08:56:27 10° 325° (NW) 1,799 5.3 -8.8°
Maximum altitude 08:59:20 20° 277° (W) 1,298 4.2 -8.2°
Drops below altitude 10° 09:02:15 10° 229° (SW) 1,821 4.9 -7.6°
Enters shadow 09:03:22 - 220° (SW) 2,185 5.3 -7.3°
